OpenBCM V1.08-5-g2f4a (Linux)

Packet Radio Mailbox

IZ3LSV

[San Dona' di P. JN]

 Login: GUEST





  
CX2SA  > KEPS     09.08.13 02:42l 220 Lines 5762 Bytes #999 (0) @ WW
BID : ORB13220.W
Read: GUEST
Subj: Orbital Elements  13220.WEATHER
Path: IZ3LSV<IQ5KG<IK1NHL<CX2SA
Sent: 130809/0143Z @:CX2SA.SAL.URY.SA #:9507 [Salto] FBB7.00e $:ORB13220.W
From: CX2SA@CX2SA.SAL.URY.SA
To  : KEPS@AMSAT


HR AMSAT ORBITAL ELEMENTS FOR WEATHER SATELLITES
FROM WA5QGD FORT WORTH,TX August 8, 2013
BID: ORB13220.W
TO ALL RADIO AMATEURS BT

Satellite: NOAA-10
Catalog number: 16969
Epoch time:      13220.11637058
Element set:     454
Inclination:      098.5434 deg
RA of node:       246.8177 deg
Eccentricity:    0.0013474
Arg of perigee:   094.9489 deg
Mean anomaly:     301.2183 deg
Mean motion:   14.27656208 rev/day
Decay rate:        2.7e-07 rev/day^2
Epoch rev:           39935
Checksum:              322

Satellite: NOAA-11
Catalog number: 19531
Epoch time:      13220.49589214
Element set:     462
Inclination:      098.7086 deg
RA of node:       302.2914 deg
Eccentricity:    0.0012393
Arg of perigee:   111.8527 deg
Mean anomaly:     319.2682 deg
Mean motion:   14.15024045 rev/day
Decay rate:        3.2e-07 rev/day^2
Epoch rev:           28352
Checksum:              278

Satellite: NOAA-12
Catalog number: 21263
Epoch time:      13220.48531071
Element set:     929
Inclination:      098.6953 deg
RA of node:       245.4512 deg
Eccentricity:    0.0014814
Arg of perigee:   070.8134 deg
Mean anomaly:     064.7789 deg
Mean motion:   14.25580199 rev/day
Decay rate:        1.0e-07 rev/day^2
Epoch rev:           15600
Checksum:              287

Satellite: MET-3/5
Catalog number: 21655
Epoch time:      13219.75588876
Element set:     754
Inclination:      082.5540 deg
RA of node:       217.8552 deg
Eccentricity:    0.0013145
Arg of perigee:   006.8480 deg
Mean anomaly:     353.2819 deg
Mean motion:   13.17052221 rev/day
Decay rate:      -4.31e-06 rev/day^2
Epoch rev:            5672
Checksum:              301

Satellite: MET-2/21
Catalog number: 22782
Epoch time:      13219.76263940
Element set:     811
Inclination:      082.5469 deg
RA of node:       061.9977 deg
Eccentricity:    0.0023480
Arg of perigee:   066.7429 deg
Mean anomaly:     049.7801 deg
Mean motion:   13.83709844 rev/day
Decay rate:        5.0e-08 rev/day^2
Epoch rev:             677
Checksum:              326

Satellite: OKEAN-4
Catalog number: 23317
Epoch time:      13220.78587903
Element set:     290
Inclination:      082.5410 deg
RA of node:       000.5547 deg
Eccentricity:    0.0022001
Arg of perigee:   055.9238 deg
Mean anomaly:     095.8811 deg
Mean motion:   14.84572968 rev/day
Decay rate:       6.09e-06 rev/day^2
Epoch rev:            1674
Checksum:              293

Satellite: NOAA-14
Catalog number: 23455
Epoch time:      13220.16037884
Element set:     409
Inclination:      098.8010 deg
RA of node:       303.8092 deg
Eccentricity:    0.0009283
Arg of perigee:   203.7322 deg
Mean anomaly:     242.6893 deg
Mean motion:   14.13915269 rev/day
Decay rate:        7.6e-07 rev/day^2
Epoch rev:           95971
Checksum:              304

Satellite: NOAA-15
Catalog number: 25338
Epoch time:      13220.09891005
Element set:     831
Inclination:      098.7287 deg
RA of node:       210.0309 deg
Eccentricity:    0.0009985
Arg of perigee:   343.4499 deg
Mean anomaly:     080.8570 deg
Mean motion:   14.25251652 rev/day
Decay rate:       1.28e-06 rev/day^2
Epoch rev:           79224
Checksum:              308

Satellite: RESURS
Catalog number: 25394
Epoch time:      13220.83495595
Element set:     440
Inclination:      098.3672 deg
RA of node:       194.1630 deg
Eccentricity:    0.0002688
Arg of perigee:   099.4566 deg
Mean anomaly:     318.5183 deg
Mean motion:   14.24333400 rev/day
Decay rate:       -1.9e-07 rev/day^2
Epoch rev:           78385
Checksum:              314

Satellite: FENGYUN1
Catalog number: 25730
Epoch time:      13219.95328449
Element set:     934
Inclination:      098.8809 deg
RA of node:       178.8368 deg
Eccentricity:    0.0023848
Arg of perigee:   263.6020 deg
Mean anomaly:     127.5692 deg
Mean motion:   14.10593089 rev/day
Decay rate:       2.70e-06 rev/day^2
Epoch rev:           73334
Checksum:              331

Satellite: OKEAN-0
Catalog number: 25860
Epoch time:      13220.08825671
Element set:      14
Inclination:      097.9954 deg
RA of node:       181.8572 deg
Eccentricity:    0.0001281
Arg of perigee:   076.4634 deg
Mean anomaly:     340.2768 deg
Mean motion:   14.74660231 rev/day
Decay rate:       3.55e-06 rev/day^2
Epoch rev:           75600
Checksum:              293

Satellite: NOAA-16
Catalog number: 26536
Epoch time:      13220.16971075
Element set:     315
Inclination:      099.0379 deg
RA of node:       273.4394 deg
Eccentricity:    0.0010059
Arg of perigee:   354.6222 deg
Mean anomaly:     038.9512 deg
Mean motion:   14.12904414 rev/day
Decay rate:        8.0e-08 rev/day^2
Epoch rev:           66391
Checksum:              293

Satellite: NOAA-17
Catalog number: 27453
Epoch time:      13220.10912367
Element set:     226
Inclination:      098.3130 deg
RA of node:       231.4375 deg
Eccentricity:    0.0011744
Arg of perigee:   020.1503 deg
Mean anomaly:     023.7790 deg
Mean motion:   14.24609047 rev/day
Decay rate:        3.7e-07 rev/day^2
Epoch rev:           57811
Checksum:              261

Satellite: NOAA-18
Catalog number: 28654
Epoch time:      13220.10803795
Element set:     713
Inclination:      099.1049 deg
RA of node:       189.0840 deg
Eccentricity:    0.0015297
Arg of perigee:   065.7154 deg
Mean anomaly:     064.7615 deg
Mean motion:   14.11847189 rev/day
Decay rate:       1.68e-06 rev/day^2
Epoch rev:           42338
Checksum:              318

Satellite: NOAA-19
Catalog number: 33591
Epoch time:      13219.99753329
Element set:     895
Inclination:      098.9055 deg
RA of node:       161.6604 deg
Eccentricity:    0.0012894
Arg of perigee:   284.7127 deg
Mean anomaly:     208.2215 deg
Mean motion:   14.11534213 rev/day
Decay rate:        8.3e-07 rev/day^2
Epoch rev:           23180
Checksum:              312



Read previous mail | Read next mail


 17.12.2025 22:34:39lGo back Go up